This is the latest recevied weather packets stored in our database for station/object KB0BS-13. If no packets are shown the sender has not sent any weather packets the latest 10 day(s).
| Time | Temp. | Humidity | Pressure | Rain* | Wind** | Luminosity | Snow |
|---|---|---|---|---|---|---|---|
| 1777697318 | -2.22° C | 87% | 1018.1 hPa | 0 mm | - | 0 W/m² | - |
| 1777697014 | -2.22° C | 86% | 1018.1 hPa | 0 mm | - | 0 W/m² | - |
| 1777696711 | -2.22° C | 85% | 1018.1 hPa | 0 mm | - | 0 W/m² | - |
| 1777696409 | -1.67° C | 84% | 1018.3 hPa | 0 mm | - | 0 W/m² | - |
| 1777696108 | -1.67° C | 84% | 1018.3 hPa | 0 mm | - | 0 W/m² | - |
| 1777695806 | -1.67° C | 84% | 1018.2 hPa | 0 mm | - | 0 W/m² | - |
| 1777695503 | -1.11° C | 85% | 1018.4 hPa | 0 mm | - | 0 W/m² | - |
| 1777695200 | -1.11° C | 84% | 1018.3 hPa | 0 mm | - | 0 W/m² | - |
| 1777694898 | -1.67° C | 84% | 1018.4 hPa | 0 mm | - | 0 W/m² | - |
| 1777694594 | -1.67° C | 83% | 1018.5 hPa | 0 mm | - | 0 W/m² | - |
| 1777694290 | -1.11° C | 82% | 1018.5 hPa | 0 mm | - | 0 W/m² | - |
| 1777693987 | -1.11° C | 82% | 1018.4 hPa | 0 mm | - | 0 W/m² | - |
| 1777693684 | -1.11° C | 82% | 1018.5 hPa | 0 mm | - | 0 W/m² | - |
| 1777693383 | -1.11° C | 82% | 1018.4 hPa | 0 mm | - | 0 W/m² | - |
| 1777693081 | -1.11° C | 82% | 1018.5 hPa | 0 mm | - | 0 W/m² | - |
| 1777692778 | -1.11° C | 82% | 1018.4 hPa | 0 mm | - | 0 W/m² | - |
| 1777692474 | -1.11° C | 82% | 1018.5 hPa | 0 mm | - | 0 W/m² | - |
| 1777692171 | -0.56° C | 82% | 1018.5 hPa | 0 mm | - | 0 W/m² | - |
| 1777691869 | -0.56° C | 82% | 1018.5 hPa | 0 mm | - | 0 W/m² | - |
| 1777691566 | -0.56° C | 83% | 1018.6 hPa | 0 mm | - | 0 W/m² | - |
| 1777691265 | -1.11° C | 84% | 1018.4 hPa | 0 mm | - | 0 W/m² | - |
| 1777690962 | -1.11° C | 84% | 1018.7 hPa | 0 mm | - | 0 W/m² | - |
| 1777690659 | -1.11° C | 84% | 1018.6 hPa | 0 mm | - | 0 W/m² | - |
| 1777690357 | -0.56° C | 84% | 1018.6 hPa | 0 mm | - | 0 W/m² | - |
| 1777690055 | -1.11° C | 85% | 1018.6 hPa | 0 mm | - | 0 W/m² | - |
* Rain latest hour (hover to see other rain measurements)
** Current wind speed in m/s (hover to see current wind gust speed)